Location: Eastlake (historical)
(39.0077°N, 122.6678°W)
Time: 17:41:14
(UTC+00:00)

Cosmos 1782 - Pass Details

Date: 25 November 2020
Orbit: 537 x 551 km, 82.5° (Epoch: 23 January)

Event Time Altitude Azimuth Distance (km) Brightness Sun altitude
Rises 14:09:24 0° 346° (NNW) 2,726 6.1 -10.8°
Reaches altitude 10° 14:11:37 10° 341° (NNW) 1,830 5.1 -10.4°
Maximum altitude 14:15:29 49° 267° (W) 718 3.0 -9.7°
Drops below altitude 10° 14:19:22 10° 192° (SSW) 1,820 5.6 -9.0°
Sets 14:21:34 0° 187° (S) 2,710 6.5 -8.6°
